Location: Asheville, NC
(35.6000°N, 82.5500°W)
Time: 03:34:42
(UTC-04:00)

M-CUBED/EXP-1 PRIME - Visible Passes

Search period start: 21 April 2018 00:00
Search period end: 01 May 2018 00:00
Orbit: 431 x 676 km, 101.7° (Epoch: 20 April)

Date Brightness Start Highest point End Pass type
(mag) Time Alt. Az. Time Alt. Az. Time Alt. Az.
21 Apr ? 21:51:37 10° SW 21:53:42 13° W 21:55:50 10° WNW visible
22 Apr ? 21:47:50 10° SW 21:50:26 15° W 21:53:06 10° WNW visible
23 Apr ? 21:44:10 10° SW 21:47:10 18° W 21:50:15 10° NW visible
24 Apr ? 21:40:36 10° SSW 21:43:55 20° W 21:47:19 10° NW visible
25 Apr ? 21:37:05 10° SSW 21:40:39 23° W 21:44:20 10° NW visible
26 Apr ? 21:33:37 10° SSW 21:37:25 26° W 21:41:18 10° NW visible
27 Apr ? 21:30:11 10° SSW 21:34:10 30° W 21:38:15 10° NW visible
28 Apr ? 21:26:48 10° SSW 21:30:56 35° WSW 21:35:10 10° NW visible
29 Apr ? 21:23:25 10° S 21:27:42 40° WSW 21:32:03 10° NNW visible
30 Apr ? 21:20:05 10° S 21:24:28 46° WSW 21:28:55 10° NNW visible
